Regional Weather Roundup
Issued by NWS Newport/Morehead, NC

Current Version | Previous Version | Text Only | Print | Product List | Glossary On
Versions: 1 2 3 4 5 6 7 8 9 10 11 12 13 14 15 16 17 18 19 20 21 22 23 24 25 26 27 28 29 30 31 32 33 34 35 36 37 38 39 40 41 42 43 44 45 46 47 48 49 50
000 ASUS42 KMHX 280310 RWRMHX WEATHER ROUNDUP FOR EASTERN NORTH CAROLINA NATIONAL WEATHER SERVICE NEWPORT/MOREHEAD CITY NC 1100 PM EDT WED AUG 27 2014 NOTE: "FAIR" INDICATES FEW OR NO CLOUDS BELOW 12,000 FEET WITH NO SIGNIFICANT WEATHER AND/OR OBSTRUCTIONS TO VISIBILITY NCZ015>017-031-032-045>047-102-103-280400- NORTH COAST CITY SKY/WX TMP DP RH WIND PRES REMARKS EDENTON CLEAR 68 66 93 CALM 29.94F ELIZABETH CITY CLEAR 65 64 97 CALM 29.93F KITTY HAWK CLEAR 71 69 92 NW3 29.91F MANTEO CLEAR 71 68 89 N3 29.92F $$ NCZ045>047-081-094-103-104-280400- CENTRAL COAST CITY SKY/WX TMP DP RH WIND PRES REMARKS FRISCO CLEAR 73 66 78 N6 29.92S SWANQUARTER N/A 70 N/A N/A NW3 29.91S $$ NCZ095-097-098-100-101-280400- SOUTHERN COAST CITY SKY/WX TMP DP RH WIND PRES REMARKS BEAUFORT CLEAR 75 71 87 CALM 29.95S CEDAR ISLAND N/A 77 N/A N/A N12 29.97S JACKSONVILLE CLEAR 71 66 84 W5 29.97R NEWPORT NOT AVBL PINEY ISLAND CLEAR 77 72 84 N5 29.94S WILMINGTON CLEAR 71 66 84 CALM 29.97F $$ NCZ011>013-027>030-043-044-078>080-089-090>093-098-280400- COASTAL PLAIN CITY SKY/WX TMP DP RH WIND PRES REMARKS AHOSKIE CLEAR 64 62 92 CALM 29.96S CLINTON CLEAR 66 65 97 CALM 29.99S ELIZABETHTOWN CLEAR 69 60 73 CALM 29.99S GOLDSBORO CLEAR 69 67 94 W1 29.96F GREENVILLE CLEAR 66 64 94 CALM 29.98S HAVELOCK CLEAR 74 67 78 NW7 29.96S KENANSVILLE CLEAR 63 61 94 CALM 29.99S KINSTON CLEAR 65 63 92 CALM 29.98S NEW BERN CLEAR 73 66 78 W5 29.97S RICHLANDS CLEAR 66 63 88 CALM 29.97S ROANOKE RAPIDS NOT AVBL ROCKY MOUNT CLEAR 66 63 90 CALM 29.97F WASHINGTON CLEAR 67 65 93 CALM 29.96F WHITEVILLE CLEAR 67 63 87 CALM 29.99R $$ AMZ130-135-150-152-154-156-158-170-250-252-270-ANZ085-086-088-633-658-670-280400- MARINE OBSERVATIONS STATION/POSITION TIME TEMP WIND PRES WAVE SWELL AIR SEA DIR/SP/G HT/PER HT/PER (UTC) (F) (DEG/KT/KT) (MB) (FT/S) (FT/S) CHESAPEAKE LIGHT 0200 74 310/ 2/ 2 1013.9 BUOY 44014 0300 74 78 320/ 12/ 16 1012.0 9/14 8/14 DUCK 0300 74 77 330/ 6/ 7 1012.4 2E DUCK 0300 N/A 6/13 3/13 OREGON INLET 0300 72 79 320/ 6/ 8 1013.0 BUOY 44095 0300 76 N/A 8/13 5/13 20E OREGON INLET NOT AVBL HATTERAS CG 0300 77 80 360/ 13/ 15 1013.6 DIAMOND BUOY 0300 75 340/ 17/ 21 1012.4 9/12 8/12 CAPE LOOKOUT 0200 78 330/ 7/ 8 1013.9 BEAUFORT LAB 0300 77 79 320/ 3/ 4 1013.7 30 SE NEW RIVER 0300 80 80 340/ 12/ 14 1014.4 5/11 5/11 5 SE WRIGHTSVILL 0300 76 81 360/ 12/ 14 N/A BUOY 41002 0218 81 81 320/ 14/ 16 1013.6 9/ 8 8/ 8 BUOY 41004 0300 81 82 240/ 4/ 6 1015.4 6/10 7/10 $$

USA.gov is the U.S. government's official web portal to all federal, state and local government web resources and services.